Wright-Patt AFB, OH

3:33 AM EDT on April 26, 2017 (GMT -0400)
Wright-Patterson Air Force Base

Weather History for KFFO - December, 2011

Change the Weather History Date:

Sunday, December 4, 2011

  Actual Average Record
Temperature  
Mean Temperature 49 °F -  
Max Temperature 53 °F 43 °F 68 °F (1998)
Min Temperature 45 °F 29 °F 14 °F (2002)
Degree Days  
Heating Degree Days 16    
Moisture  
Dew Point 42 °F    
Average Humidity 79    
Maximum Humidity 100    
Minimum Humidity 41    
Precipitation  
Precipitation 0.48 in - - ()
Sea Level Pressure  
Sea Level Pressure 30.19 in    
Wind  
Wind Speed 7 mph (South)    
Max Wind Speed 14 mph    
Max Gust Speed 22 mph    
Visibility 8 miles    
Events Rain    
Averages and records for this station are not official NWS values.
T = Trace of Precipitation, MM = Missing Value Source: NWS Daily Summary

Daily Weather History Graph

Daily Weather History Graph

Search for Another Location

Airport or City:

Trip Planner

Search our weather history database for the weather conditions in past years. The results will help you decide how hot, cold, wet, or windy it might be!

Date:

Astronomy

Dec. 04, 2011 Rise Set
Actual Time 7:41 AM EST 5:11 PM EST
Civil Twilight 7:10 AM EST 5:41 PM EST
Nautical Twilight 6:37 AM EST 6:15 PM EST
Astronomical Twilight 6:04 AM EST 6:47 PM EST
Moon 1:41 PM EST (12/4) 2:05 AM EST (12/4)
Length of Visible Light 10h 30m
Length of Day
9h 30m
Waxing Gibbous, 71% of the Moon is Illuminated
Dec 4
Waxing Gibbous
Dec 10
Full
Dec 17
Last Quarter
Dec 24
New
Jan 1
First Quarter

Hourly Weather History & Observations

Time (EST) Temp. Windchill Dew Point Humidity Pressure Visibility Wind Dir Wind Speed Gust Speed Precip Events Conditions
12:55 AM 45.0 °F 41.8 °F 30.4 °F 57% 30.21 in 10.0 mi South 5.8 mph - N/A   Clear
1:55 AM 45.9 °F 42.3 °F 30.6 °F 55% 30.19 in 10.0 mi South 6.9 mph - N/A   Clear
2:55 AM 46.4 °F 42.4 °F 30.2 °F 53% 30.19 in 10.0 mi South 8.1 mph - N/A   Scattered Clouds
3:55 AM 48.7 °F - 30.0 °F 48% 30.18 in 10.0 mi South 10.4 mph - N/A   Overcast
4:55 AM 50.0 °F - 29.8 °F 46% 30.17 in 10.0 mi South 10.4 mph - N/A   Mostly Cloudy
5:55 AM 50.9 °F - 28.6 °F 42% 30.17 in 10.0 mi SSW 13.8 mph - N/A   Overcast
6:55 AM 51.3 °F - 28.2 °F 41% 30.18 in 10.0 mi South 12.7 mph - N/A   Overcast
7:55 AM 51.1 °F - 30.0 °F 44% 30.20 in 10.0 mi South 9.2 mph - N/A   Overcast
8:55 AM 50.7 °F - 32.4 °F 49% 30.24 in 10.0 mi SSW 6.9 mph - N/A   Overcast
9:55 AM 51.4 °F - 32.0 °F 47% 30.22 in 10.0 mi South 9.2 mph - N/A   Overcast
10:55 AM 51.4 °F - 34.0 °F 51% 30.21 in 10.0 mi South 9.2 mph - N/A   Overcast
11:55 AM 53.6 °F - 37.4 °F 54% 30.19 in 10.0 mi South 12.7 mph - N/A Rain Light Rain
12:06 PM 51.8 °F - 37.4 °F 58% 30.19 in 10.0 mi South 10.4 mph - N/A   Overcast
12:20 PM 53.6 °F - 37.4 °F 54% 30.18 in 10.0 mi South 10.4 mph - N/A Rain Light Rain
12:55 PM 50.7 °F - 41.9 °F 72% 30.17 in 10.0 mi SSW 12.7 mph 21.9 mph 0.00 in Rain Light Rain
1:55 PM 48.0 °F - 45.0 °F 89% 30.18 in 7.0 mi South 6.9 mph - 0.09 in Rain Light Rain
2:15 PM 48.2 °F - 44.6 °F 87% 30.18 in 6.0 mi SSW 6.9 mph - N/A Rain Light Rain
2:55 PM 48.4 °F - 45.7 °F 90% 30.17 in 6.0 mi South 6.9 mph - 0.08 in Rain Light Rain
2:59 PM 48.2 °F - 46.4 °F 93% 30.18 in 7.0 mi South 5.8 mph - N/A   Light Drizzle
3:55 PM 48.4 °F - 46.2 °F 92% 30.18 in 7.0 mi SSW 5.8 mph - 0.02 in   Light Drizzle
4:55 PM 48.4 °F - 46.8 °F 94% 30.20 in 6.0 mi South 5.8 mph - 0.05 in Rain Light Rain
5:46 PM 48.2 °F - 46.4 °F 93% 30.21 in 10.0 mi SSW 3.5 mph - N/A   Light Drizzle
5:55 PM 47.8 °F - 47.3 °F 98% 30.20 in 7.0 mi SSW 3.5 mph - 0.03 in Rain Light Rain
6:04 PM 48.2 °F - 48.2 °F 100% 30.20 in 6.0 mi SSE 5.8 mph - N/A Rain Light Rain
6:16 PM 48.2 °F - 48.2 °F 100% 30.20 in 8.0 mi SSE 4.6 mph - N/A   Light Drizzle
6:39 PM 48.2 °F - 48.2 °F 100% 30.20 in 6.0 mi SE 4.6 mph - N/A   Light Drizzle
6:42 PM 48.2 °F - 48.2 °F 100% 30.20 in 7.0 mi SE 4.6 mph - N/A   Light Drizzle
6:55 PM 48.0 °F - 47.8 °F 99% 30.20 in 8.0 mi SSE 3.5 mph - 0.03 in Rain Light Rain
7:16 PM 48.2 °F - 48.2 °F 100% 30.22 in 7.0 mi Calm Calm - N/A Rain Light Rain
7:38 PM 48.2 °F - 48.2 °F 100% 30.22 in 7.0 mi Calm Calm - N/A Rain Light Rain
7:55 PM 48.7 °F - 48.4 °F 99% 30.22 in 7.0 mi South 3.5 mph - 0.05 in Rain Light Rain
8:17 PM 48.2 °F - 48.2 °F 100% 30.22 in 4.0 mi SE 3.5 mph - N/A   Drizzle
8:55 PM 48.9 °F - 48.7 °F 99% 30.21 in 6.0 mi SE 5.8 mph - 0.05 in   Light Drizzle
9:55 PM 49.3 °F - 49.1 °F 99% 30.19 in 5.0 mi SSE 6.9 mph - 0.01 in   Light Drizzle
10:30 PM 50.0 °F - 50.0 °F 100% 30.19 in 5.0 mi SSE 8.1 mph - N/A   Light Drizzle
10:55 PM 49.8 °F - 49.5 °F 99% 30.19 in 6.0 mi SSE 8.1 mph - 0.02 in   Light Drizzle
11:42 PM 50.0 °F - 50.0 °F 100% 30.18 in 5.0 mi SSE 6.9 mph - N/A Rain Light Rain
11:55 PM 50.0 °F - 49.8 °F 99% 30.18 in 5.0 mi SSE 6.9 mph - 0.05 in Rain Light Rain